Regional Weather Roundup
Issued by NWS

Home | Current Version | Previous Version | Graphics & Text | Print | Product List | Glossary On
Versions: 1 2 3 4 5 6 7 8 9 10 11 12 13 14 15 16 17 18 19 20 21 22 23 24 25 26 27 28 29 30 31 32 33 34 35 36 37 38 39 40 41 42 43 44 45 46 47 48 49 50
000
ASUS45 KBOU 221407
RWRCO

WEATHER ROUNDUP FOR COLORADO
NATIONAL WEATHER SERVICE DENVER/BOULDER CO
800 AM MDT FRI AUG 22 2014

NOTE: "FAIR" INDICATES FEW OR NO CLOUDS BELOW 12000 FEET WITH NO
SIGNIFICANT WEATHER AND/OR OBSTRUCTIONS TO VISIBILITY.

COZ001>005-013-030-031-221500-
...NORTHWEST COLORADO...

CITY           SKY/WX    TMP DP  RH WIND       PRES   REMARKS
CRAIG          CLOUDY    56  49  77 CALM      30.20S
HAYDEN         CLOUDY    55  45  67 E8        30.22R
MEEKER         PTSUNNY   55  48  77 CALM      30.20S
MOUNT WERNER   NOT AVBL
STEAMBOAT SPGS CLOUDY    55  46  70 E7        30.24S
WALDEN         CLOUDY    50  43  76 SE3       30.34S
$$

COZ006>008-011-221500-
...WEST CENTRAL VALLEYS...

CITY           SKY/WX    TMP DP  RH WIND       PRES   REMARKS
GRAND JUNCTION MOSUNNY   65  51  60 SE16      30.13R
MONTROSE       CLOUDY    59  55  87 CALM      30.23R
EAGLE          LGT RAIN  54  54 100 CALM      30.31R
RIFLE          PTSUNNY   62  51  67 NE8       30.18F
DELTA          RAIN      62  56  81 E5        30.19S
NUCLA          PTSUNNY   57  52  82 CALM      30.23S
$$

COZ017>023-064>068-221500-
...SOUTHWEST COLORADO...

CITY           SKY/WX    TMP DP  RH WIND       PRES   REMARKS
DURANGO        CLOUDY    56  53  90 S5        30.27R
CORTEZ         CLOUDY    58  56  93 S3        30.22R
PAGOSA SPRINGS CLOUDY    57  42  57 NE3       30.32R
TELLURIDE      DRIZZLE   52  46  82 E5        30.38R
WOLF CREEK PAS NOT AVBL
$$

COZ009-010-012-014-032>034-037-058>063-221500-
...CENTRAL COLORADO...

CITY           SKY/WX    TMP DP  RH WIND       PRES   REMARKS
ASPEN          LGT RAIN  53  50  89 SW3       30.32F
BUENA VISTA    CLOUDY    57  42  55 NW7       30.32S
COPPER MTN     CLOUDY    45  37  76 W9        30.57S
BERTHOUD PASS  FOG       34  34 100 N5        30.60S VSB 1/4 WCI  30
COTTONWOOD PAS LGT RAIN  55  36  47 W6        30.45R
GUNNISON       CLOUDY    54  46  76 E3        30.34F
KREMMLING      RAIN      52  46  82 CALM      30.34S
LEADVILLE      LGT RAIN  46  41  82 NE7       30.43S
SALIDA         CLOUDY    60  43  53 CALM      30.37S
SUNLIGHT       CLOUDY    45  45 100 SE3       30.48F
WILKERSON PASS NOT AVBL
$$

COZ069>075-221500-
...SAN LUIS VALLEY/SANGRE DE CRISTO MOUNTAINS...

CITY           SKY/WX    TMP DP  RH WIND       PRES   REMARKS
ALAMOSA        CLOUDY    56  43  61 CALM      30.28R
LA VETA PASS   NOT AVBL
SAGUACHE       CLOUDY    59  41  51 NW10      30.33R
$$

COZ035-036-038>040-221500-
...NORTHERN COLORADO FRONT RANGE...

CITY           SKY/WX    TMP DP  RH WIND       PRES   REMARKS
DENVER INTL AP CLOUDY    64  56  75 SW3       30.18R
DMNS CITY PARK   N/A     65  56  73 S2        30.18S
AURORA         CLOUDY    62  56  81 SE2       30.20S
FRONT RANGE AP NOT AVBL
ERIE MUNI ARPT CLOUDY    63  60  92 CALM      30.17S
BOULDER MUN AP CLOUDY    61  59  94 CALM      30.18R
CENTENNIAL     CLOUDY    62  55  77 W5        30.20S
BROOMFIELD     CLOUDY    64  59  82 W3        30.20S
FORT COLLINS   CLOUDY    63  57  82 CALM      30.19R
LONGMONT       CLOUDY    64  58  81 CALM      30.19S
$$

COZ041-046-047-076>085-087-088-221500-
...PIKES PEAK/PALMER DIVIDE AND SOUTHERN FOOTHILLS...

CITY           SKY/WX    TMP DP  RH WIND       PRES   REMARKS
COLO. SPRINGS  CLOUDY    64  51  62 NW6       30.22R
A. F. ACADEMY  CLOUDY    60  50  69 N8        30.24S
ELLICOTT       CLOUDY    63  53  70 NE7       30.19R
FALCON         CLOUDY    60  51  73 N8        30.26R
FORT CARSON    NOT AVBL
LIMON          CLOUDY    62  55  77 N10G20    30.16R
MONUMENT HILL  CLOUDY    55  52  88 CALM      30.26S
TRINIDAD       PTSUNNY   67  52  58 NW6       30.17S
$$

COZ042>045-048>051-090-091-221500-
...NORTHEAST COLORADO...

CITY           SKY/WX    TMP DP  RH WIND       PRES   REMARKS
GREELEY ARPT   CLOUDY    63  55  77 CALM      30.17R
AKRON          CLOUDY    60  58  92 N12       30.13R
BURLINGTON     MOSUNNY   70  56  61 N16       30.07R
WRAY             N/A     66  61  84 N12G17    30.07R
STERLING       DRIZZLE   64  64 100 SW6       30.11R
HOLYOKE        NOT AVBL
FORT MORGAN    CLOUDY    61  59  92 NE8       30.14F
$$

COZ086-089-092>099-221500-
...SOUTHEAST COLORADO...

CITY           SKY/WX    TMP DP  RH WIND       PRES   REMARKS
PUEBLO         CLOUDY    71  54  54 N7        30.12R
LA JUNTA       MOSUNNY   71  56  58 N13       30.06R
LAMAR          MOSUNNY   72  60  66 NE5       30.00R
SPRINGFIELD      N/A     77  51  40 W6        30.04R
$$



USA.gov is the U.S. government's official web portal to all federal, state and local government web resources and services.